Regional Weather Roundup
Issued by NWS

Home | Current Version | Previous Version | Text Only | Print | Product List | Glossary On
Versions: 1 2 3 4 5 6 7 8 9 10 11 12 13 14 15 16 17 18 19 20 21 22 23 24 25 26 27 28 29 30 31 32 33 34 35 36 37 38 39 40 41 42 43 44 45 46 47 48 49 50
000
ASUS43 KMKX 241521
RWRWI

WISCONSIN REGIONAL WEATHER ROUNDUP
NATIONAL WEATHER SERVICE MILWAUKEE/SULLIVAN WI
1000 AM CDT THU APR 24 2014

NOTE: "FAIR" INDICATES FEW OR NO CLOUDS BELOW 12,000 FEET WITH NO
SIGNIFICANT WEATHER AND/OR OBSTRUCTIONS TO VISIBILITY.

WIZ001-002-006>008-014>016-023>028-241600-
NORTHWEST WISCONSIN

CITY           SKY/WX    TMP DP  RH WIND       PRES   REMARKS
SUPERIOR ARPT  LGT RAIN  34  33  96 NE7       29.92S WCI  28
ASHLAND        LGT RAIN  38  34  85 E6        29.95F WCI  33
HAYWARD        LGT RAIN  37  33  85 SE12      29.88F WCI  29
SIREN          RAIN      38  37  97 E6        29.84S WCI  34
RICE LAKE      LGT RAIN  38  37  93 E12G18    29.85F WCI  31
LADYSMITH      LGT RAIN  37  35  90 E17G24    29.89F WCI  28
EAU CLAIRE     LGT RAIN  40  38  93 SE21G26   29.80F WCI  30
MENOMONIE      LGT RAIN  39  38  97 E14G25    29.81F WCI  31
NEW RICHMOND   RAIN      38  38  98 E10G20    29.80S WCI  32
OSCEOLA        RAIN      40  39  97 E13G18    29.83F WCI  32
$$

WIZ003>005-009-010-017-018-241600-
NORTH CENTRAL WISCONSIN

CITY           SKY/WX    TMP DP  RH WIND       PRES   REMARKS
WOODRUFF       LGT SNOW  37  31  82 SE9       29.96S WCI  30
RHINELANDER    LGT SNOW  34  28  79 SE13      29.98S WCI  25
EAGLE RIVER    LGT SNOW  37  21  52 SE13G22   29.99S WCI  28
LAND O LAKES   CLOUDY    38  20  48 E12G18    29.99F WCI  31
PHILLIPS       DRIZZLE   33  30  89 E10       29.92F WCI  25
TOMAHAWK       LGT SNOW  33  29  86 CALM      29.95F
MEDFORD        LGT RAIN  35  33  93 SE13G21   29.90F WCI  26
MERRILL        LGT RAIN  35  32  88 SE8       29.96F WCI  29
$$

WIZ029-030-035-036-043>047-241600-
CENTRAL WISCONSIN

CITY           SKY/WX    TMP DP  RH WIND       PRES   REMARKS
WAUSAU         MIX PCPN  36  33  89 E15       29.95F FOG     WCI  27
MOSINEE        RAIN      36  36 100 E13       29.96F WCI  27
MARSHFIELD     LGT RAIN  38  35  89 SE18      29.91F FOG     WCI  28
STEVENS POINT  RAIN      35  34  95 E13       29.97F WCI  26
WAUPACA        LGT RAIN  41  37  87 E7        30.01S
WAUTOMA        LGT RAIN  40  38  93 E10       29.98F FOG     WCI  33
WISC RAPIDS    LGT RAIN  40  37  89 SE10      29.95F WCI  33
CAMP DOUGLAS   LGT RAIN  39  39 100 E16G23    29.89F FOG     WCI  30
$$

WIZ011>013-019>022-031-037>040-048>050-241600-
NORTHEAST WISCONSIN

CITY           SKY/WX    TMP DP  RH WIND       PRES   REMARKS
ANTIGO         LGT SNOW  33  29  88 E10       29.99F WCI  24
STURGEON BAY   CLOUDY    39  28  65 SE6       30.08R WCI  35
GREEN BAY      LGT RAIN  40  36  86 E7        30.05S FOG
MANITOWOC      RAIN      40  36  86 SE12      30.06S WCI  33
APPLETON       LGT RAIN  39  37  93 E9        30.01F FOG     WCI  33
CLINTONVILLE   RAIN      37  34  87 E5        30.03F WCI  34
OSHKOSH        CLOUDY    42  36  79 SE7       30.00F
$$

WIZ032>034-041-042-053>061-241600-
SOUTHWEST WISCONSIN

CITY           SKY/WX    TMP DP  RH WIND       PRES   REMARKS
LA CROSSE      LGT RAIN  42  39  89 SE13      29.81F
SPARTA         RAIN      40  38  95 E14G21    29.86F WCI  32
VIROQUA        CLOUDY    40  39  99 E23       29.80F WCI  29
BOSCOBEL       CLOUDY    43  39  86 N7        29.83F
PRAIRIE DU CHI LGT RAIN  45  38  74 E10       29.77F
PLATTEVILLE    CLOUDY    47  39  72 E18G25    29.80F
$$

WIZ056-057-062-063-064-067-068-241600-
SOUTH CENTRAL WISCONSIN

CITY           SKY/WX    TMP DP  RH WIND       PRES   REMARKS
BARABOO/DELLS  CLOUDY    39  36  87 E14       29.89F WCI  31
LONE ROCK      CLOUDY    44  37  76 E24       29.85F
WATERTOWN      CLOUDY    43  35  72 E9        29.94F
MADISON        CLOUDY    44  36  73 E12       29.92F
MIDDLETON      CLOUDY    45  36  69 E13       29.90F
MONROE         CLOUDY    49  37  63 E12G22    29.85F
JANESVILLE     CLOUDY    50  36  57 SE12      29.92S
$$

WIZ051-052-058>065-066-070>072-241600-
SOUTHEAST WISCONSIN

CITY           SKY/WX    TMP DP  RH WIND       PRES   REMARKS
MILWAUKEE      CLOUDY    46  34  62 SE20G29   29.98F
WAUKESHA       CLOUDY    45  34  65 E10G20    29.98F
MILWAUKEE/TIMM NOT AVBL
RACINE         CLOUDY    45  35  68 SE18G24   29.98F
BURLINGTON     CLOUDY    48  36  63 SE12G17   29.95S
KENOSHA        CLOUDY    48  35  60 SE18      29.96F
FOND DU LAC    LGT RAIN  43  36  76 SE7       29.98F
SHEBOYGAN      LGT RAIN  41  35  79 E9        30.03S
WEST BEND      CLOUDY    41  34  75 E7        30.00S
JUNEAU         LGT RAIN  41  33  72 E13       29.97F
$$

LSZ147-162-241600-
LAKE SUPERIOR

STATION/POSITION TIME  TEMP    WIND        PRES    WAVE
                       AIR SEA DIR/SP/G            HT/PER
                 (UTC) (F)     (DEG/KT/KT) (MB)    (FT/S)
DEVILS ISLAND    1500   37     100/ 19/ 21 1015.7F
PORT WING        1400   39      90/  2/  7 1014.2F
SAXON HARBOR     1400           80/  1/  7 1015.2F
$$

LMZ867-665-643>646-241600-
LAKE MICHIGAN

STATION/POSITION TIME  TEMP    WIND        PRES    WAVE
                       AIR SEA DIR/SP/G            HT/PER
                 (UTC) (F)     (DEG/KT/KT) (MB)    (FT/S)
NORTHPORT PIER   1400   36     160/  3/  5 1018.6F
SISTER BAY       1408   40     160/  7/ 10   N/A
KEWAUNEE LAKESHO 1400   37     100/  4/  6 1018.4F
SHEBOYGAN LAKESH 1500   40     100/ 15/ 16 1017.6F
PORT WASHINGTON  1440   39      70/  8/ 11 1016.6F
MILWAUKEE LAKESH 1500   40     110/ 15/ 18   N/A
KENOSHA   LAKESH 1500   42     130/ 18/ 22   N/A
$$

TC  - TEMPERATURE IN CELSIUS
VSB - VISIBILITY IN STATUTE MILES
WCI - WIND CHILL INDEX
HX  - HEAT INDEX




USA.gov is the U.S. government's official web portal to all federal, state and local government web resources and services.